W7KKE-3 Weather Reports


time (UTC)temp
F
wind
direction
speed
knots
gust
knots
rain 1hr
in
rain 24hr
in
rain mn
in
humidity
%
barometer
mb
20260904095825 56 200 0.9 4.3 0.00 1.32 0.01 92 1004.2
20260904095325 56 151 2.6 2.6 0.00 1.32 0.01 92 1004.2
20260904094825 56 175 0.0 2.6 0.00 1.32 0.01 92 1004.2
20260904094326 56 273 0.9 2.6 0.00 1.32 0.01 92 1004.2
20260904093825 56 281 0.0 2.6 0.00 1.32 0.01 92 1004.2
20260904093325 56 5 0.0 2.6 0.00 1.32 0.01 92 1004.2
20260904092825 56 264 0.0 1.7 0.00 1.32 0.01 92 1004.1
20260904092325 56 238 0.0 0.0 0.00 1.32 0.01 92 1004.1
20260904091825 56 53 0.0 2.6 0.00 1.32 0.01 92 1004.0
20260904091326 56 189 0.0 2.6 0.00 1.32 0.01 92 1003.9
20260904090825 56 238 0.0 2.6 0.00 1.32 0.01 92 1003.9
20260904090325 56 239 0.0 2.6 0.00 1.32 0.01 92 1003.9
20260904085825 56 239 0.0 2.6 0.00 1.32 0.01 92 1003.9
20260904085325 56 176 0.0 3.5 0.00 1.32 0.01 92 1003.9
20260904084825 56 215 0.9 3.5 0.00 1.32 0.01 92 1003.8
20260904084326 56 200 0.0 3.5 0.00 1.32 0.01 92 1003.8
20260904083825 56 231 1.7 4.3 0.01 1.32 0.01 92 1003.8
20260904083325 56 196 0.9 4.3 0.01 1.32 0.01 92 1003.8
20260904082825 56 204 0.0 4.3 0.01 1.32 0.01 92 1003.8
20260904082325 56 197 0.0 4.3 0.01 1.32 0.01 92 1003.8
20260904081825 56 298 0.0 4.3 0.01 1.32 0.01 92 1003.8
20260904081326 56 289 0.0 4.3 0.01 1.32 0.01 91 1003.8
20260904080825 56 299 2.6 2.6 0.01 1.32 0.01 91 1003.7
20260904080325 56 264 0.0 4.3 0.01 1.32 0.01 91 1003.7
20260904075825 56 240 0.0 4.3 0.01 1.31 0.01 91 1003.7
20260904075325 56 242 0.0 4.3 0.01 1.31 0.01 91 1003.7
20260904074825 56 154 0.9 4.3 0.01 1.31 0.01 91 1003.7
20260904074326 56 144 0.0 4.3 0.01 1.31 0.01 91 1003.8
20260904073825 56 268 0.9 2.6 0.00 1.31 0.01 91 1003.7
20260904073325 56 229 0.9 5.2 0.00 1.31 0.00 91 1003.7
20260904072825 56 233 0.9 5.2 0.00 1.31 0.00 91 1003.8
20260904072325 56 158 0.0 5.2 0.00 1.31 0.00 91 1003.7
20260904071825 56 275 0.9 3.5 0.00 1.31 0.00 91 1003.6
20260904071326 56 137 0.0 3.5 0.00 1.31 0.00 91 1003.7
20260904070825 56 194 0.9 3.5 0.00 1.31 0.00 91 1003.7
20260904070325 56 240 0.0 2.6 0.00 1.31 0.00 91 1003.6
20260904065826 57 266 0.0 3.5 0.00 1.31 0.00 91 1003.6
20260904065325 57 201 0.0 3.5 0.00 1.31 1.31 91 1003.6
20260904064825 57 182 0.0 3.5 0.00 1.31 1.31 91 1003.6
20260904064326 57 84 0.9 3.5 0.00 1.31 1.31 91 1003.7
20260904063825 57 231 0.0 3.5 0.00 1.31 1.31 91 1003.7
20260904063325 57 250 0.0 3.5 0.00 1.31 1.31 91 1003.7
20260904062825 57 190 0.0 3.5 0.00 1.31 1.31 91 1003.7
20260904062325 57 320 0.9 1.7 0.00 1.31 1.31 91 1003.8
20260904061825 57 221 0.9 1.7 0.00 1.31 1.31 91 1003.8
20260904061326 57 273 0.0 2.6 0.00 1.31 1.31 91 1003.8
20260904060825 57 289 0.0 2.6 0.00 1.31 1.31 91 1003.9
20260904060325 57 275 0.9 2.6 0.00 1.31 1.31 91 1004.0
20260904055825 57 257 0.0 1.7 0.00 1.31 1.31 91 1004.0
20260904055325 57 266 0.0 1.7 0.00 1.31 1.31 91 1004.1
20260904054825 57 301 0.0 1.7 0.07 1.31 1.31 91 1004.0
20260904054326 57 140 0.0 1.7 0.07 1.31 1.31 91 1004.1
20260904053918 57 215 0.0 2.6 0.13 1.31 1.31 91 1004.2
20260904053825 57 215 0.0 2.6 0.13 1.31 1.31 91 1004.2
20260904053325 57 257 0.9 2.6 0.13 1.31 1.31 91 1004.1
20260904052825 57 201 0.0 2.6 0.17 1.31 1.31 91 1004.1
20260904052326 57 82 0.9 4.3 0.17 1.31 1.31 91 1004.2
20260904051825 57 112 0.0 4.3 0.19 1.31 1.31 91 1004.2
20260904051326 57 198 0.9 4.3 0.19 1.31 1.31 91 1004.2
20260904050825 57 323 1.7 1.7 0.19 1.31 1.31 91 1004.3
20260904050325 57 333 0.0 1.7 0.19 1.31 1.31 91 1004.2
20260904045825 57 106 0.9 2.6 0.19 1.31 1.31 91 1004.3
20260904045325 57 137 1.7 2.6 0.19 1.31 1.31 91 1004.4
20260904044825 57 110 0.0 2.6 0.13 1.31 1.31 91 1004.4
20260904044326 57 107 0.0 1.7 0.13 1.26 1.27 91 1004.3
20260904043825 57 112 0.0 1.7 0.07 1.22 1.22 91 1004.4
20260904043326 57 103 0.0 1.7 0.07 1.19 1.19 91 1004.3
20260904042825 57 92 0.0 1.7 0.04 1.17 1.17 91 1004.3
20260904042325 57 137 0.0 0.9 0.04 1.15 1.15 91 1004.3
20260904041825 57 180 0.0 0.9 0.02 1.13 1.13 91 1004.3
20260904041326 57 120 0.0 3.5 0.02 1.12 1.12 91 1004.2
20260904040825 57 74 0.0 3.5 0.03 1.12 1.12 91 1004.2
20260904040325 57 163 0.0 3.5 0.03 1.12 1.12 91 1004.2
20260904035826 58 124 0.0 2.6 0.05 1.12 1.12 91 1004.1
20260904035325 58 236 0.0 3.5 0.05 1.12 1.12 91 1004.1
20260904034825 58 204 0.0 3.5 0.07 1.11 1.11 91 1004.2
20260904033825 58 103 1.7 2.6 0.07 1.11 1.11 91 1004.0
20260904033325 58 84 0.0 2.6 0.07 1.11 1.11 91 1004.0
20260904032825 58 152 0.9 2.6 0.07 1.11 1.11 91 1003.9
20260904032325 58 88 0.0 2.6 0.07 1.11 1.11 91 1003.8
20260904031825 58 176 0.0 4.3 0.09 1.10 1.10 90 1003.9
20260904031326 58 93 0.0 4.3 0.09 1.10 1.10 90 1003.9
20260904030825 58 85 0.0 4.3 0.08 1.10 1.10 90 1003.8
20260904030325 58 155 1.7 3.5 0.08 1.09 1.09 90 1003.8
20260904025825 58 86 0.9 3.5 0.06 1.08 1.08 90 1003.8
20260904025325 58 68 0.0 5.2 0.06 1.07 1.08 90 1003.9
20260904024825 58 95 0.9 5.2 0.03 1.05 1.05 90 1003.9
20260904024326 58 149 0.0 5.2 0.03 1.04 1.04 90 1003.8
20260904023825 58 110 1.7 2.6 0.03 1.04 1.04 90 1003.8
20260904023325 59 102 0.0 7.8 0.03 1.04 1.04 90 1003.8
20260904022825 59 88 1.7 7.8 0.02 1.04 1.04 90 1003.8
20260904022325 59 161 1.7 7.8 0.02 1.04 1.04 90 1003.8
20260904021825 59 161 3.5 7.0 0.00 1.02 1.03 90 1003.9
20260904021326 59 197 1.7 5.2 0.00 1.01 1.02 90 1003.9
20260904020825 59 85 1.7 3.5 0.00 1.01 1.01 90 1003.8
20260904020325 59 113 1.7 3.5 0.00 1.01 1.01 90 1003.8
20260904015825 59 85 0.9 3.5 0.00 1.01 1.01 90 1003.7
20260904015325 59 128 0.9 4.3 0.00 1.01 1.01 90 1003.8
20260904014825 59 92 1.7 4.3 0.01 1.01 1.01 90 1003.7
20260904014326 59 79 1.7 4.3 0.01 1.01 1.01 90 1003.7
20260904013825 59 133 1.7 3.5 0.01 1.01 1.01 90 1003.8
20260904013325 59 78 1.7 7.0 0.01 1.01 1.01 90 1003.8
20260904012825 59 137 0.9 7.0 0.01 1.01 1.01 90 1003.7
20260904012325 59 179 1.7 7.0 0.01 1.01 1.01 90 1003.8
20260904011825 59 148 2.6 5.2 0.01 1.01 1.01 90 1003.8
20260904011326 59 138 1.7 5.2 0.01 1.01 1.01 90 1003.8
20260904010825 59 172 3.5 5.2 0.01 1.01 1.01 90 1003.8
20260904010325 59 163 2.6 8.7 0.01 1.01 1.01 90 1003.8
20260904005825 59 149 1.7 8.7 0.01 1.01 1.01 90 1003.8
20260904005325 59 226 1.7 8.7 0.01 1.01 1.01 90 1003.8
20260904004825 59 99 3.5 7.0 0.00 1.01 1.01 90 1003.8
20260904004326 59 170 1.7 10.4 0.00 1.00 1.00 90 1003.8
20260904003825 59 163 2.6 10.4 0.02 1.00 1.00 90 1003.8
20260904003325 59 163 2.6 10.4 0.02 1.00 1.00 90 1003.9
20260904002825 59 180 4.3 8.7 0.04 1.00 1.00 90 1003.9
20260904002325 59 93 1.7 8.7 0.04 1.00 1.00 90 1003.9
20260904001825 59 197 3.5 8.7 0.05 1.00 1.00 90 1003.8
20260904001326 59 113 3.5 9.6 0.05 1.00 1.00 90 1003.8
20260904000825 59 75 0.9 9.6 0.06 1.00 1.00 90 1003.8
20260904000325 59 182 3.5 9.6 0.06 1.00 1.00 90 1003.8
20260903235325 59 170 1.7 5.2 0.08 1.00 1.00 90 1003.9
20260903234825 59 182 1.7 8.7 0.08 1.00 1.00 90 1003.9
20260903234326 59 221 2.6 8.7 0.08 1.00 1.00 90 1003.8
20260903233325 59 114 2.6 6.1 0.07 0.98 0.98 90 1003.9
20260903232825 59 71 3.5 8.7 0.05 0.98 0.98 90 1003.9
20260903232325 59 106 2.6 8.7 0.05 0.97 0.97 90 1004.0
20260903231825 60 119 1.7 8.7 0.06 0.96 0.96 90 1004.1
20260903231326 60 187 6.1 7.0 0.06 0.95 0.96 90 1004.1
20260903230825 60 154 3.5 7.0 0.06 0.95 0.95 90 1004.1
20260903230325 59 163 2.6 7.0 0.06 0.94 0.94 90 1004.2
20260903230035 59 170 0.9 8.7 0.05 0.93 0.94 90 1004.2
20260903225825 59 170 0.9 8.7 0.05 0.93 0.94 90 1004.2
20260903225325 59 100 0.9 8.7 0.05 0.93 0.93 90 1004.2
20260903224825 59 173 3.5 8.7 0.05 0.92 0.92 90 1004.2
20260903224326 59 135 1.7 6.1 0.05 0.92 0.92 90 1004.3
20260903223825 59 175 1.7 6.1 0.04 0.92 0.92 90 1004.2
20260903223325 59 107 2.6 6.1 0.04 0.91 0.92 90 1004.2
20260903222825 59 166 0.9 6.1 0.05 0.91 0.91 90 1004.2
20260903222325 59 82 2.6 6.1 0.05 0.91 0.91 90 1004.2
20260903221825 59 170 2.6 10.4 0.15 0.90 0.90 89 1004.3
20260903221326 59 102 1.7 10.4 0.15 0.89 0.89 89 1004.3
20260903220825 59 200 3.5 10.4 0.17 0.89 0.89 89 1004.2
20260903220325 59 176 4.3 8.7 0.17 0.88 0.88 89 1004.3
20260903215825 59 124 7.0 8.7 0.16 0.88 0.88 89 1004.2
20260903215325 59 138 2.6 8.7 0.16 0.87 0.87 89 1004.2
20260903214825 59 113 4.3 7.0 0.17 0.87 0.87 89 1004.2
20260903213825 59 113 1.7 5.2 0.17 0.87 0.87 89 1004.3
20260903213325 58 194 0.9 5.2 0.17 0.87 0.87 89 1004.2
20260903212825 59 74 1.7 5.2 0.16 0.87 0.87 88 1004.3
20260903212325 59 109 3.5 9.6 0.16 0.86 0.86 88 1004.4
20260903211825 59 186 3.5 9.6 0.04 0.82 0.83 88 1004.6
20260903211326 60 158 2.6 9.6 0.04 0.75 0.75 87 1004.7
20260903210825 60 105 2.6 9.6 0.01 0.72 0.72 87 1004.6
20260903205825 60 208 5.2 9.6 0.01 0.72 0.71 87 1004.4
20260903205325 60 175 3.5 7.0 0.01 0.72 0.71 88 1004.4
20260903204825 60 163 3.5 14.8 0.00 0.72 0.71 87 1004.4
20260903204327 60 197 4.3 14.8 0.00 0.72 0.70 87 1004.4
20260903203825 61 179 5.2 14.8 0.00 0.72 0.70 87 1004.4
20260903203325 61 197 6.1 13.9 0.00 0.72 0.70 87 1004.3
20260903202825 61 165 5.2 7.8 0.00 0.72 0.70 89 1004.2
20260903202325 62 123 1.7 13.9 0.00 0.72 0.70 89 1004.2
20260903201825 62 163 2.6 13.9 0.01 0.72 0.70 90 1004.3
20260903201326 62 173 2.6 13.9 0.01 0.72 0.70 90 1004.3
20260903200825 61 175 2.6 8.7 0.02 0.72 0.70 90 1004.4
20260903200325 61 72 1.7 7.8 0.02 0.72 0.70 91 1004.2
20260903195825 60 210 3.5 5.2 0.02 0.74 0.70 91 1004.3
20260903195325 60 120 1.7 5.2 0.02 0.74 0.70 91 1004.4
20260903194826 59 182 2.6 3.5 0.02 0.74 0.70 91 1004.4
20260903194326 59 133 0.9 7.0 0.02 0.74 0.70 91 1004.5
20260903193825 59 168 0.9 7.0 0.02 0.74 0.70 91 1004.6
20260903193325 59 137 2.6 7.0 0.02 0.74 0.70 91 1004.7
20260903192825 58 145 3.5 7.0 0.04 0.74 0.70 91 1004.8
20260903192325 58 127 1.7 7.0 0.04 0.74 0.70 90 1004.8
20260903191825 58 184 1.7 7.0 0.04 0.74 0.69 90 1004.8
20260903191326 58 158 1.7 6.1 0.04 0.74 0.69 90 1004.8
20260903190825 58 162 2.6 7.8 0.04 0.74 0.69 91 1004.8
20260903190325 58 163 1.7 7.8 0.04 0.74 0.68 91 1004.8
20260903185825 58 198 3.5 7.8 0.08 0.84 0.68 90 1004.8
20260903185325 58 205 3.5 7.0 0.08 0.84 0.68 90 1004.9
20260903184825 58 165 1.7 7.0 0.08 0.84 0.68 90 1004.9
20260903184326 58 245 3.5 7.0 0.08 0.84 0.68 90 1004.8
20260903183325 58 162 2.6 7.8 0.08 0.84 0.68 91 1004.9
20260903182825 58 196 0.9 7.8 0.07 0.84 0.67 90 1004.9
20260903182325 58 191 2.6 7.8 0.07 0.84 0.66 90 1004.9
20260903181825 58 149 2.6 4.3 0.07 0.84 0.66 90 1004.9
20260903181326 58 154 0.9 7.8 0.07 0.84 0.65 90 1004.9
20260903180825 58 175 2.6 7.8 0.06 0.84 0.65 90 1004.9
20260903180325 58 70 3.5 7.8 0.06 0.84 0.65 90 1004.9
20260903175825 58 198 2.6 8.7 0.04 0.84 0.63 90 1004.9
20260903175325 58 84 1.7 8.7 0.04 0.84 0.61 90 1004.9
20260903174825 58 149 4.3 8.7 0.07 0.84 0.60 90 1004.9
20260903174326 58 163 0.9 12.2 0.07 0.84 0.60 90 1004.9
20260903173826 58 47 3.5 12.2 0.11 0.84 0.60 90 1004.8
20260903173325 58 142 5.2 12.2 0.11 0.84 0.60 90 1004.9
20260903172825 58 182 4.3 11.3 0.10 0.84 0.59 90 1004.8
20260903172326 58 198 3.5 13.9 0.10 0.84 0.59 90 1004.8
20260903171825 58 165 7.0 13.9 0.09 0.84 0.58 90 1004.6
20260903171326 59 182 5.2 13.9 0.09 0.84 0.58 90 1004.6
20260903170825 58 193 6.1 13.0 0.09 0.84 0.58 91 1004.6
20260903170325 58 217 5.2 19.1 0.09 0.84 0.58 91 1004.7
20260903165825 58 191 7.8 19.1 0.07 0.83 0.58 90 1004.7
20260903165325 58 207 7.8 19.1 0.07 0.83 0.57 90 1004.7
20260903164825 58 197 7.8 14.8 0.04 0.83 0.56 90 1004.7
20260903164326 59 190 7.0 18.2 0.04 0.83 0.54 90 1004.7
20260903163825 59 205 7.0 18.2 0.00 0.83 0.52 90 1004.7
20260903163325 59 182 10.4 18.2 0.00 0.83 0.49 90 1004.6
20260903162826 59 133 1.7 7.0 0.07 0.83 0.49 90 1004.4
20260903162329 59 140 3.5 7.0 0.07 0.83 0.49 90 1004.4
20260903161825 59 222 4.3 14.8 0.07 0.83 0.49 90 1004.4
20260903161326 59 204 2.6 14.8 0.07 0.83 0.49 90 1004.6
20260903160827 59 190 3.5 14.8 0.07 0.83 0.49 90 1004.6
20260903160325 59 166 4.3 11.3 0.07 0.83 0.49 90 1004.6
20260903155826 59 96 1.7 9.6 0.07 0.82 0.49 90 1004.5
20260903155325 59 156 3.5 8.7 0.07 0.82 0.49 90 1004.4
20260903154825 58 166 2.6 11.3 0.07 0.82 0.49 90 1004.4
20260903154326 58 155 3.5 11.3 0.07 0.82 0.49 90 1004.4
20260903153825 58 172 4.3 11.3 0.10 0.82 0.49 90 1004.4
20260903153325 58 135 7.0 9.6 0.10 0.82 0.49 90 1004.4
20260903152826 58 165 5.2 7.8 0.05 0.82 0.47 90 1004.5
20260903152325 58 110 2.6 6.1 0.05 0.82 0.42 90 1004.4
20260903151825 58 212 3.5 8.7 0.07 0.82 0.42 90 1004.4
20260903151326 58 156 4.3 8.7 0.07 0.82 0.42 90 1004.5
20260903150825 58 84 3.5 8.7 0.09 0.82 0.42 90 1004.4
20260903150325 57 84 3.5 7.8 0.09 0.82 0.42 90 1004.3
20260903145826 57 85 2.6 7.0 0.11 0.80 0.42 90 1004.3
20260903145325 57 77 3.5 7.0 0.11 0.80 0.42 90 1004.2
20260903144825 57 93 2.6 5.2 0.14 0.80 0.42 90 1004.2
20260903144326 56 142 0.9 11.3 0.14 0.80 0.42 90 1004.1
20260903143825 56 219 2.6 11.3 0.11 0.80 0.42 90 1004.2
20260903143325 56 232 3.5 11.3 0.11 0.80 0.42 90 1004.5
20260903142825 56 204 2.6 12.2 0.10 0.80 0.38 90 1004.5
20260903142325 56 208 4.3 12.2 0.10 0.80 0.37 90 1004.3
20260903141825 56 228 2.6 12.2 0.10 0.80 0.37 90 1004.3
20260903141326 56 214 5.2 7.8 0.10 0.80 0.35 90 1004.4
20260903140825 56 169 3.5 13.9 0.09 0.80 0.34 90 1004.5
20260903135826 56 173 1.7 13.9 0.07 0.72 0.33 90 1004.4
20260903135325 56 212 4.3 10.4 0.07 0.72 0.32 90 1004.4
20260903134825 56 204 4.3 10.4 0.07 0.72 0.31 89 1004.4
20260903134326 57 172 3.5 10.4 0.07 0.72 0.29 89 1004.3
20260903133825 57 124 3.5 8.7 0.07 0.72 0.28 89 1004.2
20260903133325 57 70 2.6 8.7 0.07 0.72 0.28 89 1004.2
20260903132826 57 140 2.6 8.7 0.06 0.72 0.27 89 1004.1
20260903132325 57 159 3.5 14.8 0.06 0.72 0.27 89 1004.2
20260903131826 57 197 3.5 14.8 0.04 0.72 0.27 89 1004.1
20260903131326 57 172 5.2 14.8 0.04 0.72 0.26 89 1004.2
20260903130825 57 177 6.1 13.0 0.03 0.72 0.24 89 1004.3
20260903125826 57 191 7.8 18.2 0.03 0.69 0.24 89 1004.4
20260903125325 58 201 6.1 18.2 0.03 0.69 0.24 89 1004.3
20260903124825 58 190 3.5 13.0 0.00 0.69 0.23 89 1004.2
20260903124327 58 180 4.3 11.3 0.00 0.69 0.23 89 1004.4
20260903123825 58 179 5.2 11.3 0.00 0.69 0.21 89 1004.2
20260903123325 58 75 4.3 9.6 0.00 0.69 0.21 89 1004.2
20260903122326 58 168 4.3 11.3 0.00 0.69 0.21 89 1004.2
20260903121825 58 140 2.6 11.3 0.00 0.69 0.21 89 1004.3
20260903121326 58 196 2.6 11.3 0.00 0.69 0.21 89 1004.4
20260903120825 58 201 5.2 10.4 0.00 0.69 0.21 89 1004.4
20260903120325 58 161 5.2 9.6 0.00 0.69 0.21 89 1004.3
20260903115826 58 135 2.6 9.6 0.00 0.69 0.21 89 1004.4
20260903115326 58 124 3.5 12.2 0.00 0.69 0.21 89 1004.5
20260903114825 58 161 4.3 12.2 0.01 0.69 0.21 89 1004.5
20260903114326 58 130 6.1 12.2 0.01 0.69 0.21 89 1004.4
20260903113325 58 190 4.3 15.6 0.05 0.69 0.21 89 1004.7
20260903112826 58 180 4.3 15.6 0.07 0.69 0.21 89 1004.6
20260903112325 58 123 7.0 19.1 0.07 0.69 0.21 89 1004.7
20260903111825 58 175 4.3 19.1 0.09 0.69 0.21 89 1004.7
20260903111326 58 190 7.0 19.1 0.09 0.69 0.21 89 1004.8
20260903110825 58 184 7.8 15.6 0.13 0.69 0.21 89 1004.7
20260903110325 59 156 7.0 15.6 0.13 0.69 0.21 89 1004.7
20260903105826 58 184 5.2 15.6 0.20 0.56 0.21 89 1004.6
20260903105325 59 200 8.7 20.9 0.20 0.56 0.21 89 1004.7
20260903104825 59 148 7.8 20.9 0.19 0.56 0.21 89 1004.6
20260903104326 59 201 8.7 20.9 0.19 0.56 0.20 89 1004.7
20260903103829 59 205 6.1 19.1 0.16 0.56 0.19 88 1004.8
20260903103325 59 196 6.1 19.1 0.16 0.56 0.16 88 1004.7
20260903102826 59 154 5.2 19.1 0.14 0.56 0.16 88 1004.7
20260903102454 59 219 5.2 14.8 0.12 0.56 0.13 88 1004.8
20260903102325 59 246 9.6 17.4 0.14 0.56 0.15 88 1004.6
20260903101825 59 183 2.6 10.4 0.12 0.56 0.14 88 1004.7
20260903101326 59 219 5.2 14.8 0.12 0.56 0.13 88 1004.8
20260903100825 59 226 7.0 14.8 0.08 0.56 0.11 87 1004.8
20260903100325 59 135 3.5 14.8 0.08 0.56 0.09 87 1004.7